Find Starlink 3525

NORAD ID: 51733 Int'l Des: 2022-016 Owner: SPXS Country: US Constellation: starlink operational
LEOCIRCULAR

現在のビュー

3D地球を読み込み中...

About Starlink 3525

Starlink 3525 (NORAD 51733) is a starlink constellation satellite (v1.5) launched Feb 21, 2022 by SPXS of US. It operates in LEO, CIRCULAR orbit with a mass of 297.00 kg.

Starlink 3525について

説明を読み込み中...

次回通過

Passes for default location (London). Set your location on the main map for personalized predictions.

高度履歴

Loading altitude history...

軌道要素

1 51733U 22016V 26164.52086743 -.00000153 00000-0 85071-5 0 9990
2 51733 53.1597 248.8534 0001265 89.0915 271.0222 15.08830830238039
Epoch: Jun 13, 2026 • Age: 12 hours

現在のステータス

高度 558.8 km
速度 7.58 km/s
衛星直下点 -52.23°S, 133.39°W
打ち上げ日 Feb 21, 2022
運用期間 4.3 years
タイプ internet

技術仕様

分類 Payload
質量 297.00 kg
乾燥質量 275.00 kg
総質量 297.00 kg
長さ 0.20 m
直径 2.80 m
スパン 9.00 m
形状 Box + pan
製造者 SPXS
バスタイプ Starlink
フェーズステータス In Orbit
所有者/国 SPXS/US

Most Searched